| time (UTC) | temp C | wind direction | speed KPH | gust KPH | rain 1hr cm | rain 24hr cm | rain mn cm | humidity % | barometer mb |
| 20260906122019 | 18 | 60 | 0.0 | 1.6 | 0.00 | 0.00 | 0.00 | 99 | 1019.5 |
| 20260906121019 | 18 | 346 | 0.0 | 1.6 | 0.00 | 0.00 | 0.00 | 98 | 1019.6 |
| 20260906120017 | 18 | 351 | 0.0 | 1.6 | 0.00 | 0.00 | 0.00 | 98 | 1019.3 |
| 20260906115017 | 18 | 14 | 0.0 | 1.6 | 0.00 | 0.00 | 0.00 | 98 | 1019.1 |
| 20260906114020 | 18 | 16 | 0.0 | 1.6 | 0.00 | 0.00 | 0.00 | 98 | 1019.0 |
| 20260906113020 | 17 | 20 | 0.0 | 1.6 | 0.00 | 0.00 | 0.00 | 98 | 1018.9 |
| 20260906112040 | 17 | 78 | 0.0 | 3.2 | 0.00 | 0.00 | 0.00 | 98 | 1018.9 |
| 20260906111017 | 18 | 54 | 0.0 | 1.6 | 0.00 | 0.00 | 0.00 | 98 | 1018.9 |
| 20260906110017 | 18 | 52 | 0.0 | 3.2 | 0.00 | 0.00 | 0.00 | 98 | 1018.7 |
| 20260906105017 | 18 | 25 | 0.0 | 1.6 | 0.00 | 0.00 | 0.00 | 98 | 1018.7 |
| 20260906104018 | 18 | 47 | 0.0 | 1.6 | 0.00 | 0.00 | 0.00 | 98 | 1018.7 |
| 20260906103038 | 18 | 41 | 0.0 | 1.6 | 0.00 | 0.00 | 0.00 | 98 | 1018.6 |
| 20260906102018 | 18 | 38 | 0.0 | 1.6 | 0.00 | 0.00 | 0.00 | 98 | 1018.5 |
| 20260906101015 | 18 | 60 | 0.0 | 1.6 | 0.00 | 0.00 | 0.00 | 98 | 1018.4 |
| 20260906100019 | 18 | 50 | 0.0 | 1.6 | 0.00 | 0.00 | 0.00 | 98 | 1018.3 |
| 20260906095018 | 18 | 31 | 0.0 | 4.8 | 0.00 | 0.00 | 0.00 | 98 | 1018.3 |
| 20260906094019 | 18 | 25 | 1.6 | 4.8 | 0.00 | 0.00 | 0.00 | 98 | 1018.3 |
| 20260906093039 | 18 | 34 | 1.6 | 3.2 | 0.00 | 0.00 | 0.00 | 98 | 1018.3 |
| 20260906092019 | 18 | 40 | 1.6 | 8.0 | 0.00 | 0.00 | 0.00 | 98 | 1018.1 |
| 20260906091019 | 18 | 41 | 0.0 | 3.2 | 0.00 | 0.00 | 0.00 | 98 | 1018.2 |
| 20260906090016 | 18 | 34 | 1.6 | 3.2 | 0.00 | 0.00 | 0.00 | 98 | 1018.2 |
| 20260906085019 | 18 | 46 | 1.6 | 3.2 | 0.00 | 0.00 | 0.00 | 98 | 1018.2 |
| 20260906084020 | 18 | 50 | 1.6 | 3.2 | 0.00 | 0.00 | 0.00 | 97 | 1018.2 |
| 20260906083020 | 18 | 50 | 0.0 | 3.2 | 0.00 | 0.00 | 0.00 | 97 | 1018.2 |
| 20260906082017 | 18 | 54 | 0.0 | 1.6 | 0.00 | 0.00 | 0.00 | 97 | 1018.2 |
| 20260906081037 | 18 | 59 | 0.0 | 1.6 | 0.00 | 0.00 | 0.00 | 97 | 1018.1 |
| 20260906080017 | 18 | 37 | 0.0 | 1.6 | 0.00 | 0.00 | 0.00 | 97 | 1018.1 |
| 20260906075017 | 18 | 37 | 0.0 | 1.6 | 0.00 | 0.00 | 0.00 | 97 | 1018.1 |
| 20260906074040 | 18 | 63 | 0.0 | 1.6 | 0.00 | 0.00 | 0.00 | 97 | 1018.1 |
| 20260906073020 | 18 | 45 | 0.0 | 1.6 | 0.00 | 0.00 | 0.00 | 97 | 1018.3 |
| 20260906072018 | 18 | 8 | 0.0 | 0.0 | 0.00 | 0.00 | 0.00 | 97 | 1018.1 |
| 20260906071018 | 18 | 31 | 0.0 | 1.6 | 0.00 | 0.00 | 0.00 | 97 | 1018.2 |
| 20260906070018 | 19 | 16 | 0.0 | 1.6 | 0.00 | 0.00 | 0.00 | 97 | 1018.2 |
| 20260906065038 | 19 | 17 | 0.0 | 1.6 | 0.00 | 0.00 | 0.00 | 96 | 1018.3 |
| 20260906064018 | 19 | 14 | 0.0 | 1.6 | 0.00 | 0.00 | 0.00 | 96 | 1018.2 |
| 20260906063018 | 19 | 1 | 0.0 | 1.6 | 0.00 | 0.00 | 0.00 | 96 | 1018.1 |
| 20260906062018 | 19 | 358 | 0.0 | 1.6 | 0.00 | 0.00 | 0.00 | 96 | 1018.2 |
| 20260906061015 | 19 | 19 | 0.0 | 1.6 | 0.00 | 0.00 | 0.00 | 96 | 1018.2 |
| 20260906060018 | 20 | 29 | 0.0 | 0.0 | 0.00 | 0.00 | 0.00 | 95 | 1018.2 |
| 20260906055039 | 20 | 49 | 0.0 | 3.2 | 0.00 | 0.00 | 0.00 | 95 | 1018.2 |
| 20260906054019 | 20 | 299 | 0.0 | 1.6 | 0.00 | 0.00 | 0.00 | 95 | 1018.2 |
| 20260906053019 | 20 | 322 | 0.0 | 1.6 | 0.00 | 0.00 | 0.00 | 94 | 1018.1 |
| 20260906052019 | 20 | 325 | 0.0 | 1.6 | 0.00 | 0.00 | 0.00 | 94 | 1017.9 |
| 20260906051019 | 20 | 328 | 0.0 | 1.6 | 0.00 | 0.00 | 0.00 | 93 | 1017.9 |
| 20260906050056 | 21 | 32 | 0.0 | 3.2 | 0.00 | 0.00 | 0.00 | 93 | 1017.8 |
| 20260906045019 | 21 | 36 | 0.0 | 3.2 | 0.00 | 0.00 | 0.00 | 93 | 1017.6 |
| 20260906044019 | 21 | 354 | 0.0 | 3.2 | 0.00 | 0.00 | 0.00 | 93 | 1017.6 |
| 20260906043020 | 21 | 350 | 1.6 | 3.2 | 0.00 | 0.00 | 0.00 | 93 | 1017.6 |
| 20260906042017 | 21 | 20 | 1.6 | 4.8 | 0.00 | 0.00 | 0.00 | 93 | 1017.5 |
| 20260906041017 | 21 | 18 | 0.0 | 3.2 | 0.00 | 0.00 | 0.00 | 93 | 1017.3 |
| 20260906040017 | 21 | 350 | 1.6 | 3.2 | 0.00 | 0.00 | 0.00 | 93 | 1017.3 |
| 20260906035038 | 21 | 9 | 1.6 | 4.8 | 0.00 | 0.00 | 0.00 | 93 | 1017.3 |
| 20260906034020 | 21 | 343 | 1.6 | 3.2 | 0.00 | 0.00 | 0.00 | 93 | 1017.3 |
| 20260906033038 | 21 | 346 | 1.6 | 3.2 | 0.00 | 0.00 | 0.00 | 93 | 1017.2 |
| 20260906032038 | 21 | 14 | 1.6 | 6.4 | 0.00 | 0.00 | 0.00 | 93 | 1017.2 |
| 20260906031017 | 21 | 324 | 0.0 | 3.2 | 0.00 | 0.03 | 0.00 | 92 | 1017.2 |
| 20260906030018 | 21 | 303 | 0.0 | 3.2 | 0.00 | 0.03 | 0.00 | 91 | 1017.2 |
| 20260906025018 | 21 | 324 | 1.6 | 4.8 | 0.00 | 0.03 | 0.00 | 91 | 1017.2 |
| 20260906024018 | 21 | 351 | 1.6 | 8.0 | 0.00 | 0.03 | 0.00 | 90 | 1017.2 |
| 20260906023018 | 21 | 344 | 1.6 | 6.4 | 0.00 | 0.03 | 0.00 | 90 | 1017.0 |
| 20260906022015 | 21 | 326 | 1.6 | 3.2 | 0.00 | 0.03 | 0.00 | 89 | 1017.1 |
| 20260906021015 | 21 | 331 | 1.6 | 4.8 | 0.00 | 0.03 | 0.00 | 89 | 1017.2 |
| 20260906020019 | 21 | 12 | 1.6 | 6.4 | 0.00 | 0.03 | 0.00 | 89 | 1017.1 |
| 20260906015019 | 21 | 2 | 1.6 | 4.8 | 0.00 | 0.03 | 0.00 | 89 | 1017.3 |
| 20260906014019 | 21 | 4 | 1.6 | 4.8 | 0.00 | 0.03 | 0.00 | 89 | 1017.2 |
| 20260906013019 | 21 | 13 | 1.6 | 4.8 | 0.00 | 0.03 | 0.00 | 89 | 1017.2 |
| 20260906012016 | 21 | 23 | 1.6 | 6.4 | 0.00 | 0.03 | 0.00 | 89 | 1017.1 |
| 20260906011017 | 21 | 31 | 3.2 | 8.0 | 0.00 | 0.03 | 0.00 | 89 | 1017.1 |
| 20260906010020 | 22 | 1 | 1.6 | 6.4 | 0.00 | 0.03 | 0.00 | 89 | 1017.1 |
| 20260906005020 | 22 | 11 | 3.2 | 8.0 | 0.00 | 0.03 | 0.00 | 89 | 1016.9 |
| 20260906004020 | 22 | 353 | 3.2 | 8.0 | 0.00 | 0.03 | 0.00 | 89 | 1016.8 |
| 20260906003037 | 22 | 2 | 3.2 | 8.0 | 0.00 | 0.03 | 0.00 | 89 | 1016.7 |
| 20260906002017 | 22 | 359 | 3.2 | 8.0 | 0.00 | 0.03 | 0.00 | 88 | 1016.7 |
| 20260906001017 | 22 | 348 | 1.6 | 8.0 | 0.00 | 0.03 | 0.00 | 87 | 1016.6 |
| 20260906000018 | 22 | 18 | 3.2 | 8.0 | 0.00 | 0.03 | 0.00 | 87 | 1016.6 |
| 20260905235040 | 22 | 9 | 3.2 | 6.4 | 0.00 | 0.03 | 0.00 | 87 | 1016.7 |
| 20260905234018 | 22 | 16 | 3.2 | 8.0 | 0.00 | 0.03 | 0.00 | 88 | 1016.7 |
| 20260905233038 | 22 | 7 | 1.6 | 8.0 | 0.00 | 0.03 | 0.00 | 87 | 1016.8 |
| 20260905232018 | 22 | 6 | 1.6 | 4.8 | 0.00 | 0.03 | 0.00 | 87 | 1016.6 |
| 20260905231018 | 22 | 2 | 3.2 | 9.7 | 0.00 | 0.03 | 0.00 | 87 | 1016.6 |
| 20260905230018 | 22 | 28 | 3.2 | 9.7 | 0.00 | 0.03 | 0.00 | 86 | 1016.6 |
| 20260905225018 | 23 | 7 | 3.2 | 8.0 | 0.00 | 0.03 | 0.00 | 85 | 1016.5 |
| 20260905224019 | 23 | 356 | 3.2 | 9.7 | 0.00 | 0.03 | 0.00 | 84 | 1016.4 |
| 20260905223038 | 23 | 360 | 3.2 | 8.0 | 0.00 | 0.03 | 0.00 | 84 | 1016.4 |
| 20260905222015 | 24 | 8 | 3.2 | 8.0 | 0.00 | 0.03 | 0.00 | 82 | 1016.4 |
| 20260905221016 | 24 | 8 | 3.2 | 8.0 | 0.00 | 0.03 | 0.00 | 81 | 1016.3 |
| 20260905220019 | 25 | 354 | 3.2 | 9.7 | 0.00 | 0.03 | 0.00 | 80 | 1016.2 |
| 20260905215019 | 25 | 1 | 3.2 | 8.0 | 0.00 | 0.03 | 0.00 | 79 | 1016.1 |
| 20260905214019 | 25 | 351 | 1.6 | 4.8 | 0.00 | 0.03 | 0.00 | 78 | 1015.9 |
| 20260905213019 | 26 | 21 | 3.2 | 9.7 | 0.00 | 0.03 | 0.00 | 77 | 1015.8 |
| 20260905212017 | 26 | 7 | 3.2 | 6.4 | 0.00 | 0.03 | 0.00 | 77 | 1015.6 |
| 20260905211017 | 26 | 25 | 3.2 | 11.3 | 0.00 | 0.03 | 0.00 | 78 | 1015.7 |
| 20260905210020 | 26 | 25 | 3.2 | 6.4 | 0.00 | 0.03 | 0.00 | 78 | 1015.6 |
| 20260905205040 | 26 | 356 | 3.2 | 9.7 | 0.00 | 0.03 | 0.00 | 79 | 1015.6 |
| 20260905204020 | 27 | 30 | 3.2 | 8.0 | 0.00 | 0.03 | 0.00 | 77 | 1015.6 |
| 20260905203017 | 27 | 51 | 3.2 | 6.4 | 0.00 | 0.03 | 0.00 | 77 | 1015.4 |
| 20260905202017 | 27 | 15 | 3.2 | 8.0 | 0.00 | 0.03 | 0.00 | 72 | 1015.5 |
| 20260905201017 | 27 | 13 | 3.2 | 9.7 | 0.00 | 0.03 | 0.00 | 73 | 1015.5 |
| 20260905200018 | 27 | 13 | 4.8 | 11.3 | 0.00 | 0.03 | 0.00 | 74 | 1015.6 |
| 20260905195020 | 27 | 31 | 3.2 | 6.4 | 0.00 | 0.03 | 0.00 | 74 | 1015.7 |
| 20260905194018 | 26 | 3 | 3.2 | 6.4 | 0.00 | 0.03 | 0.00 | 74 | 1015.9 |
| 20260905193018 | 26 | 28 | 3.2 | 6.4 | 0.00 | 0.03 | 0.00 | 78 | 1016.0 |
| 20260905192018 | 26 | 18 | 3.2 | 6.4 | 0.00 | 0.03 | 0.00 | 79 | 1015.9 |
| 20260905191018 | 25 | 28 | 3.2 | 6.4 | 0.00 | 0.03 | 0.00 | 80 | 1016.0 |
| 20260905190018 | 25 | 29 | 3.2 | 6.4 | 0.00 | 0.03 | 0.00 | 81 | 1016.1 |
| 20260905185018 | 24 | 21 | 3.2 | 8.0 | 0.00 | 0.03 | 0.00 | 84 | 1016.2 |
| 20260905184019 | 24 | 29 | 3.2 | 8.0 | 0.00 | 0.03 | 0.00 | 85 | 1016.4 |
| 20260905183016 | 24 | 359 | 3.2 | 9.7 | 0.00 | 0.03 | 0.00 | 85 | 1016.4 |
| 20260905182016 | 24 | 7 | 1.6 | 4.8 | 0.00 | 0.03 | 0.00 | 85 | 1016.3 |
| 20260905181016 | 25 | 8 | 3.2 | 9.7 | 0.00 | 0.03 | 0.00 | 84 | 1016.4 |
| 20260905180019 | 25 | 10 | 3.2 | 8.0 | 0.00 | 0.03 | 0.00 | 84 | 1016.2 |
| 20260905175019 | 25 | 24 | 3.2 | 6.4 | 0.00 | 0.03 | 0.00 | 84 | 1016.1 |
| 20260905174019 | 25 | 26 | 3.2 | 9.7 | 0.00 | 0.03 | 0.00 | 84 | 1016.0 |
| 20260905173037 | 24 | 25 | 1.6 | 6.4 | 0.00 | 0.03 | 0.00 | 84 | 1016.2 |
| 20260905172017 | 24 | 14 | 3.2 | 8.0 | 0.00 | 0.03 | 0.00 | 85 | 1016.2 |
| 20260905171109 | 23 | 5 | 1.6 | 4.8 | 0.00 | 0.05 | 0.00 | 86 | 1016.3 |
| 20260905170023 | 23 | 4 | 3.2 | 9.7 | 0.00 | 0.10 | 0.00 | 86 | 1016.4 |
| 20260905165029 | 23 | 338 | 3.2 | 6.4 | 0.00 | 0.33 | 0.00 | 87 | 1016.5 |
| 20260905164029 | 23 | 20 | 1.6 | 1.6 | 0.00 | 0.51 | 0.00 | 87 | 1016.5 |
| 20260905163029 | 23 | 27 | 3.2 | 8.0 | 0.00 | 0.51 | 0.00 | 87 | 1016.4 |
| 20260905162029 | 23 | 40 | 3.2 | 6.4 | 0.00 | 0.51 | 0.00 | 87 | 1016.4 |
| 20260905161030 | 23 | 12 | 1.6 | 4.8 | 0.00 | 0.51 | 0.00 | 87 | 1016.4 |
| 20260905160017 | 23 | 12 | 3.2 | 11.3 | 0.00 | 0.51 | 0.00 | 86 | 1016.3 |
| 20260905155029 | 24 | 355 | 3.2 | 6.4 | 0.00 | 0.51 | 0.00 | 86 | 1016.2 |
| 20260905154030 | 24 | 27 | 3.2 | 6.4 | 0.00 | 0.51 | 0.00 | 87 | 1016.2 |
| 20260905153018 | 24 | 354 | 3.2 | 8.0 | 0.00 | 0.51 | 0.00 | 87 | 1016.1 |
| 20260905152030 | 23 | 19 | 1.6 | 4.8 | 0.00 | 0.51 | 0.00 | 88 | 1015.9 |
| 20260905151030 | 23 | 5 | 3.2 | 4.8 | 0.00 | 0.51 | 0.00 | 89 | 1015.8 |
| 20260905150030 | 23 | 24 | 3.2 | 4.8 | 0.00 | 0.51 | 0.00 | 89 | 1015.8 |
| 20260905145030 | 23 | 31 | 1.6 | 6.4 | 0.00 | 0.51 | 0.00 | 88 | 1015.8 |
| 20260905144016 | 24 | 18 | 1.6 | 3.2 | 0.00 | 0.51 | 0.00 | 88 | 1015.7 |
| 20260905143036 | 24 | 358 | 1.6 | 3.2 | 0.00 | 0.51 | 0.00 | 88 | 1015.6 |
| 20260905142016 | 24 | 26 | 1.6 | 4.8 | 0.00 | 0.51 | 0.00 | 88 | 1015.6 |
| 20260905141016 | 23 | 28 | 1.6 | 3.2 | 0.00 | 0.51 | 0.00 | 90 | 1015.5 |
| 20260905140016 | 23 | 19 | 1.6 | 6.4 | 0.00 | 0.51 | 0.00 | 93 | 1015.5 |
| 20260905135016 | 23 | 0 | 1.6 | 3.2 | 0.00 | 0.51 | 0.00 | 94 | 1015.5 |
| 20260905134051 | 23 | 1 | 1.6 | 4.8 | 0.00 | 0.51 | 0.00 | 94 | 1015.4 |
| 20260905133031 | 23 | 14 | 1.6 | 4.8 | 0.00 | 0.51 | 0.00 | 95 | 1015.6 |
| 20260905132032 | 22 | 12 | 1.6 | 3.2 | 0.00 | 0.51 | 0.00 | 96 | 1015.8 |
| 20260905131032 | 22 | 341 | 1.6 | 3.2 | 0.00 | 0.51 | 0.00 | 96 | 1015.4 |
| 20260905130032 | 22 | 15 | 1.6 | 4.8 | 0.00 | 0.51 | 0.00 | 97 | 1015.2 |
| 20260905125032 | 22 | 20 | 1.6 | 3.2 | 0.00 | 0.51 | 0.00 | 97 | 1015.2 |
| 20260905124037 | 22 | 27 | 0.0 | 1.6 | 0.00 | 0.51 | 0.00 | 97 | 1015.0 |
| 20260905123018 | 22 | 15 | 1.6 | 3.2 | 0.00 | 0.51 | 0.00 | 97 | 1014.8 |